Showing default

PRAETORIAN SDA_620, 65583

Orbit data source: Space-Track

PRAETORIAN SDA_620, 65583 is a payload satellite owned by SDA (US) in LEO that was launched on Wed, 10 Sep 2025 UTC via an FALCON 9 launch vehicle from the Air Force Western Test Range (AFWTR). Payload-class satellites include a variety of spacecraft equipped with specific instruments for various scientific and technological missions. These include communications satellites like Starlink; space stations such as the ISS; scientific satellites like the Hubble; Earth observation satellites from companies like Planet Labs, Umbra, and HawkEye 360; GPS; miniature CubeSats for education and research; and military/defense satellites.

Loading next visibility...
Identifier
65583, 2025-203U
Orbit
LEO
Country
Flag of USUS
Related business
Manufacturer
York Space Sys
Mission
Operational Defense Communications
Bus & Motor
S-CLASS, Unknown motor
Mass
~300 kg wet, ~300 kg dry
Launch date (UTC)
2025-09-10 (9 months ago)
Launch vehicle
FALCON 9
Launch site
Air Force Western Test Range (AFWTR)
Object type
Payload
Rocket body
Debris
Shape & HBR
Box + 4 Pan, 14.5 m
Radar Cross Section
1.244 m², Large (>1 m²)

Expand to show TLE details & history
Last TLE update: 15 hours ago

TLE from 15 hours ago
0 PRAETORIAN SDA_620
1 65583U 25203U   26171.29624150  .00000124  00000-0  10119-3 0  9997
2 65583  81.3024   7.9286 0007932 172.6670 187.4604 13.83617991 39122
Epoch: 2026-06-20T07:06Z
TLE epoch observation values (Epoch: 2026-06-20T07:06:35.265Z)
Latitude
-0.00001°
Longitude
-7.23124°
Altitude
959.712 km
Speed
7.369 km/s
True Right ascension
00h 31m 42s
True Declination
0° 00' 00"
Sunlit
Object was in daylight at epoch
Visualization orbit readout
Latitude
Unknown
Longitude
Unknown
Altitude
Unknown
Speed
Unknown
Apparent Right ascension
Unknown
Apparent Declination
Unknown
Sunlit
N/A
Visualization observer readout
Local Sidereal Time
08:32:51
Azimuth
Unknown
Elevation
Unknown
Doppler factor
Unknown
Orbital elements
Apogee altitude
954.1 km
Perigee altitude
942.478 km
Semi-major axis
7,326.426 km
Eccentricity
0.00079
Inclination
81.3024°
RAAN
7.9286°
Arg. of periapsis
172.667°
True anomaly
187.44861°
Mean anomaly
187.4604°
Eccentric anomaly
187.4545°
Mean motion
3.46103 °/min
Orbital period
104.02 mins
BSTAR
0.00010119
Loading maneuver chart data...
Computing Atmospheric mass density...
Loading historical data...
Loading historical data...
Loading historical data...
Loading historical data...
Loading historical data...
Loading historical data...
Loading historical data...

Documentation

Showing up to 5 results
|